Flag for Brazil Weather past 2 weeks in Fortaleza, Ceará, Brazil

Now
77 °F

Passing clouds.


Feels Like: 79 °F
Forecast: 77 / 87 °F
Wind: 15 mph from East

Location: Fortaleza Aeropor-To

Current Time: Sep 16, 2014 at 2:29:07 AM

Latest Report: Sep 16, 2014 at 2:00 AM


Visibility: N/A

Pressure: 29.92 "Hg

Humidity: 69%

Dew point: 66 °F

Location of FortalezaLocation

Historic Weather in Fortaleza — Graph

°F

Fortaleza temperature yesterday

Maximum temperature yesterday: 86 °F (at 10:00 AM)
Minimum temperature yesterday: 77 °F (at 3:00 AM)
Average temperature yesterday: 81 °F

Past Weeks' High & Low Weather Summary

 TemperatureHumidityPressure
High88 °F (Sep 7, 11:00 AM)89% (Sep 13, 5:00 AM)30.15 "Hg (Sep 13, 5:00 AM)
Low73 °F (Sep 2, 5:00 AM)38% (Sep 15, 11:00 AM)29.80 "Hg (Sep 11, 3:00 PM)
Average80 °F65%29.93 "Hg
* Reported Sep 1 1:00 AM — Sep 16 1:00 AM, Fortaleza, Weather by CustomWeather, © 2014

Note: Actual official high and low records may vary slightly from our data, if they occured in-between our weather recording intervals... More about our weather records

Advertising

Fortaleza weather history for previous 24 hours

 ConditionsComfort  
Time TempWeatherWind HumidityBarometerVisibility
1:00 AM
Sep 16
79 °FPassing clouds.15 mph70%30.09 "HgN/A
12:00 AM79 °FPassing clouds.17 mph70%29.95 "HgN/A
11:00 PM
Sep 15
79 °FPassing clouds.17 mph70%29.95 "HgN/A
10:00 PM79 °FPassing clouds.16 mph70%29.95 "HgN/A
9:00 PM79 °FClear.14 mph70%29.95 "Hg10 mi
8:00 PM79 °FClear.18 mph65%29.92 "Hg10 mi
7:00 PM79 °FClear.10 mph70%29.89 "Hg10 mi
6:00 PM81 °FClear.10 mph66%29.89 "Hg10 mi
5:00 PM81 °FSunny.13 mph62%29.86 "Hg10 mi
4:00 PM82 °FSunny.16 mph58%29.86 "Hg10 mi
3:00 PM84 °FSunny.22 mph55%29.86 "Hg10 mi
2:00 PM84 °FSunny.18 mph51%29.86 "Hg10 mi
1:00 PM86 °FSunny.20 mph46%29.89 "Hg10 mi
12:00 PM84 °FSunny.28 mph45%29.92 "Hg10 mi
11:00 AM86 °FSunny.30 mph38%29.95 "Hg10 mi
10:00 AM86 °FPassing clouds.26 mph40%29.98 "HgN/A
9:00 AM82 °FPassing clouds.23 mph45%30.01 "HgN/A
8:00 AM81 °FPassing clouds.24 mph54%30.01 "HgN/A
7:00 AM79 °FPassing clouds.25 mph61%29.98 "HgN/A
6:00 AM77 °FPassing clouds.18 mph65%29.98 "HgN/A
5:00 AM77 °FPassing clouds.17 mph65%29.95 "HgN/A
4:00 AM79 °FPassing clouds.23 mph61%29.98 "HgN/A
3:00 AM77 °FPassing clouds.18 mph69%29.95 "HgN/A
2:00 AM79 °FPassing clouds.20 mph70%29.95 "HgN/A
Weather by CustomWeather, © 2014

See weather overviewHow to use our weather pages